Tracking 34346 objects as of 10-Jun-2026
HD Live streaming from Space Station
objects crossing your sky now

RADUGA 1-7

Track RADUGA 1-7 now!
RADUGA 1-7 is classified as:


NORAD ID: 28194
Int'l Code: 2004-010A
Perigee: 35,792.5 km
Apogee: 35,827.4 km
Inclination: 13.7 °
Period: 1,436.9 minutes
Semi major axis: 42180 km
RCS: 12.5893 m2 (large)
Launch date: March 27, 2004
Source: Commonwealth of Independent States (former USSR) (CIS)
Launch site: TYURATAM MISSILE AND SPACE COMPLEX (TTMTR)

Military communication.
Your satellite tracking list
Your tracking list is empty




NASA's NSSDC Master Catalog

Two Line Element Set (TLE):
1 28194U 04010A   26161.27459300  .00000132  00000-0  00000+0 0  9990
2 28194  13.6722  20.8173 0004134 238.4534 128.5490  1.00213947 81352
Source of the keplerian elements: AFSPC